Year,Month,Day,Hour,Minute,Value (Times are PST for temperature in C)
2014,07,28,00,00,21.60
2014,07,28,00,01,21.50
2014,07,28,00,02,21.50
2014,07,28,00,03,21.40
2014,07,28,00,04,21.40
2014,07,28,00,05,21.40
2014,07,28,00,06,21.40
2014,07,28,00,07,21.40
2014,07,28,00,08,21.40
2014,07,28,00,09,21.40
2014,07,28,00,10,21.40
2014,07,28,00,11,21.40
2014,07,28,00,12,21.40
2014,07,28,00,13,21.40
2014,07,28,00,14,21.40
2014,07,28,00,15,21.40
2014,07,28,00,16,21.40
2014,07,28,00,17,21.40
2014,07,28,00,18,21.40
2014,07,28,00,19,21.30
2014,07,28,00,20,21.30
2014,07,28,00,21,21.30
2014,07,28,00,22,21.30
2014,07,28,00,23,21.30
2014,07,28,00,24,21.20
2014,07,28,00,25,21.20
2014,07,28,00,26,21.20
2014,07,28,00,27,21.20
2014,07,28,00,28,21.20
2014,07,28,00,29,21.30
2014,07,28,00,30,21.30
2014,07,28,00,31,21.30
2014,07,28,00,32,21.30
2014,07,28,00,33,21.30
2014,07,28,00,34,21.30
2014,07,28,00,35,21.40
2014,07,28,00,36,21.40
2014,07,28,00,37,21.40
2014,07,28,00,38,21.40
2014,07,28,00,39,21.40
2014,07,28,00,40,21.40
2014,07,28,00,41,21.40
2014,07,28,00,42,21.40
2014,07,28,00,43,21.40
2014,07,28,00,44,21.40
2014,07,28,00,45,21.40
2014,07,28,00,46,21.40
2014,07,28,00,47,21.40
2014,07,28,00,48,21.50
2014,07,28,00,49,21.50
2014,07,28,00,50,21.50
2014,07,28,00,51,21.50
2014,07,28,00,52,21.50
2014,07,28,00,53,21.50
2014,07,28,00,54,21.50
2014,07,28,00,55,21.50
2014,07,28,00,56,21.50
2014,07,28,00,57,21.50
2014,07,28,00,58,21.60
2014,07,28,00,59,21.60
2014,07,28,01,00,21.60
2014,07,28,01,01,21.60
2014,07,28,01,02,21.60
2014,07,28,01,03,21.60
2014,07,28,01,04,21.60
2014,07,28,01,05,21.60
2014,07,28,01,06,21.60
2014,07,28,01,07,21.60
2014,07,28,01,08,21.60
2014,07,28,01,09,21.60
2014,07,28,01,10,21.60
2014,07,28,01,11,21.70
2014,07,28,01,12,21.80
2014,07,28,01,13,21.80
2014,07,28,01,14,21.90
2014,07,28,01,15,21.90
2014,07,28,01,16,22.00
2014,07,28,01,17,22.00
2014,07,28,01,18,22.10
2014,07,28,01,19,22.10
2014,07,28,01,20,22.10
2014,07,28,01,21,22.10
2014,07,28,01,22,22.10
2014,07,28,01,23,22.10
2014,07,28,01,24,22.10
2014,07,28,01,25,22.10
2014,07,28,01,26,22.10
2014,07,28,01,27,22.10
2014,07,28,01,28,22.00
2014,07,28,01,29,22.00
2014,07,28,01,30,22.00
2014,07,28,01,31,22.00
2014,07,28,01,32,21.90
2014,07,28,01,33,21.90
2014,07,28,01,34,21.90
2014,07,28,01,35,21.80
2014,07,28,01,36,21.70
2014,07,28,01,37,21.60
2014,07,28,01,38,21.50
2014,07,28,01,39,21.40
2014,07,28,01,40,21.30
2014,07,28,01,41,21.30
2014,07,28,01,42,21.30
2014,07,28,01,43,21.30
2014,07,28,01,44,21.30
2014,07,28,01,45,21.30
2014,07,28,01,46,21.40
2014,07,28,01,47,21.40
2014,07,28,01,48,21.50
2014,07,28,01,49,21.60
2014,07,28,01,50,21.70
2014,07,28,01,51,21.80
2014,07,28,01,52,21.80
2014,07,28,01,53,21.90
2014,07,28,01,54,21.90
2014,07,28,01,55,22.00
2014,07,28,01,56,22.00
2014,07,28,01,57,21.90
2014,07,28,01,58,21.80
2014,07,28,01,59,21.70
2014,07,28,02,00,21.60
2014,07,28,02,01,21.40
2014,07,28,02,02,21.30
2014,07,28,02,03,21.20
2014,07,28,02,04,21.10
2014,07,28,02,05,21.10
2014,07,28,02,06,20.90
2014,07,28,02,07,20.90
2014,07,28,02,08,20.80
2014,07,28,02,09,20.70
2014,07,28,02,10,20.70
2014,07,28,02,11,20.60
2014,07,28,02,12,20.50
2014,07,28,02,13,20.40
2014,07,28,02,14,20.40
2014,07,28,02,15,20.30
2014,07,28,02,16,20.30
2014,07,28,02,17,20.20
2014,07,28,02,18,20.20
2014,07,28,02,19,20.20
2014,07,28,02,20,20.30
2014,07,28,02,21,20.30
2014,07,28,02,22,20.40
2014,07,28,02,23,20.40
2014,07,28,02,24,20.50
2014,07,28,02,25,20.60
2014,07,28,02,26,20.60
2014,07,28,02,27,20.70
2014,07,28,02,28,20.70
2014,07,28,02,29,20.80
2014,07,28,02,30,20.80
2014,07,28,02,31,20.80
2014,07,28,02,32,20.90
2014,07,28,02,33,20.90
2014,07,28,02,34,20.90
2014,07,28,02,35,20.90
2014,07,28,02,36,20.90
2014,07,28,02,37,20.90
2014,07,28,02,38,20.90
2014,07,28,02,39,20.90
2014,07,28,02,40,20.80
2014,07,28,02,41,20.80
2014,07,28,02,42,20.80
2014,07,28,02,43,20.90
2014,07,28,02,44,20.90
2014,07,28,02,45,20.90
2014,07,28,02,46,20.80
2014,07,28,02,47,20.80
2014,07,28,02,48,20.80
2014,07,28,02,49,20.80
2014,07,28,02,50,20.80
2014,07,28,02,51,20.80
2014,07,28,02,52,20.80
2014,07,28,02,53,20.80
2014,07,28,02,54,20.80
2014,07,28,02,55,20.80
2014,07,28,02,56,20.80
2014,07,28,02,57,20.80
2014,07,28,02,58,20.80
2014,07,28,02,59,20.80
2014,07,28,03,00,20.90
2014,07,28,03,01,20.90
2014,07,28,03,02,20.90
2014,07,28,03,03,20.90
2014,07,28,03,04,20.90
2014,07,28,03,05,20.90
2014,07,28,03,06,20.90
2014,07,28,03,07,20.90
2014,07,28,03,08,20.90
2014,07,28,03,09,20.90
2014,07,28,03,10,20.90
2014,07,28,03,11,20.90
2014,07,28,03,12,20.90
2014,07,28,03,13,20.90
2014,07,28,03,14,20.90
2014,07,28,03,15,20.90
2014,07,28,03,16,20.90
2014,07,28,03,17,20.90
2014,07,28,03,18,20.90
2014,07,28,03,19,20.90
2014,07,28,03,20,21.00
2014,07,28,03,21,21.00
2014,07,28,03,22,21.00
2014,07,28,03,23,21.10
2014,07,28,03,24,21.10
2014,07,28,03,25,21.10
2014,07,28,03,26,21.10
2014,07,28,03,27,21.10
2014,07,28,03,28,21.10
2014,07,28,03,29,21.00
2014,07,28,03,30,21.00
2014,07,28,03,31,21.00
2014,07,28,03,32,21.00
2014,07,28,03,33,20.90
2014,07,28,03,34,20.90
2014,07,28,03,35,20.90
2014,07,28,03,36,20.90
2014,07,28,03,37,20.90
2014,07,28,03,38,21.00
2014,07,28,03,39,21.00
2014,07,28,03,40,21.00
2014,07,28,03,41,20.90
2014,07,28,03,42,20.90
2014,07,28,03,43,20.90
2014,07,28,03,44,20.90
2014,07,28,03,45,20.90
2014,07,28,03,46,20.90
2014,07,28,03,47,20.90
2014,07,28,03,48,20.80
2014,07,28,03,49,20.80
2014,07,28,03,50,20.80
2014,07,28,03,51,20.80
2014,07,28,03,52,20.80
2014,07,28,03,53,20.80
2014,07,28,03,54,20.70
2014,07,28,03,55,20.70
2014,07,28,03,56,20.70
2014,07,28,03,57,20.60
2014,07,28,03,58,20.60
2014,07,28,03,59,20.50
2014,07,28,04,00,20.40
2014,07,28,04,01,20.40
2014,07,28,04,02,20.30
2014,07,28,04,03,20.30
2014,07,28,04,04,20.20
2014,07,28,04,05,20.20
2014,07,28,04,06,20.20
2014,07,28,04,07,20.10
2014,07,28,04,08,20.10
2014,07,28,04,09,20.10
2014,07,28,04,10,20.10
2014,07,28,04,11,20.10
2014,07,28,04,12,20.10
2014,07,28,04,13,20.00
2014,07,28,04,14,20.00
2014,07,28,04,15,20.00
2014,07,28,04,16,20.00
2014,07,28,04,17,20.10
2014,07,28,04,18,20.00
2014,07,28,04,19,20.00
2014,07,28,04,20,20.00
2014,07,28,04,21,20.00
2014,07,28,04,22,20.00
2014,07,28,04,23,20.00
2014,07,28,04,24,20.00
2014,07,28,04,25,20.00
2014,07,28,04,26,20.00
2014,07,28,04,27,20.00
2014,07,28,04,28,20.00
2014,07,28,04,29,19.90
2014,07,28,04,30,19.90
2014,07,28,04,31,19.90
2014,07,28,04,32,20.00
2014,07,28,04,33,20.00
2014,07,28,04,34,20.00
2014,07,28,04,35,20.00
2014,07,28,04,36,20.00
2014,07,28,04,37,20.00
2014,07,28,04,38,20.00
2014,07,28,04,39,20.00
2014,07,28,04,40,20.00
2014,07,28,04,41,20.00
2014,07,28,04,42,19.90
2014,07,28,04,43,19.90
2014,07,28,04,44,19.90
2014,07,28,04,45,19.80
2014,07,28,04,46,19.80
2014,07,28,04,47,19.80
2014,07,28,04,48,19.80
2014,07,28,04,49,19.80
2014,07,28,04,50,19.80
2014,07,28,04,51,19.80
2014,07,28,04,52,19.80
2014,07,28,04,53,19.80
2014,07,28,04,54,19.80
2014,07,28,04,55,19.80
2014,07,28,04,56,19.80
2014,07,28,04,57,19.80
2014,07,28,04,58,19.80
2014,07,28,04,59,19.80
2014,07,28,05,00,19.80
2014,07,28,05,01,19.80
2014,07,28,05,02,19.80
2014,07,28,05,03,19.80
2014,07,28,05,04,19.70
2014,07,28,05,05,19.70
2014,07,28,05,06,19.60
2014,07,28,05,07,19.60
2014,07,28,05,08,19.60
2014,07,28,05,09,19.50
2014,07,28,05,10,19.50
2014,07,28,05,11,19.40
2014,07,28,05,12,19.40
2014,07,28,05,13,19.40
2014,07,28,05,14,19.40
2014,07,28,05,15,19.40
2014,07,28,05,16,19.30
2014,07,28,05,17,19.30
2014,07,28,05,18,19.30
2014,07,28,05,19,19.30
2014,07,28,05,20,19.20
2014,07,28,05,21,19.20
2014,07,28,05,22,19.20
2014,07,28,05,23,19.20
2014,07,28,05,24,19.20
2014,07,28,05,25,19.10
2014,07,28,05,26,19.10
2014,07,28,05,27,19.10
2014,07,28,05,28,19.10
2014,07,28,05,29,19.10
2014,07,28,05,30,19.00
2014,07,28,05,31,19.00
2014,07,28,05,32,19.00
2014,07,28,05,33,18.90
2014,07,28,05,34,18.90
2014,07,28,05,35,18.90
2014,07,28,05,36,18.90
2014,07,28,05,37,18.90
2014,07,28,05,38,18.80
2014,07,28,05,39,18.80
2014,07,28,05,40,18.80
2014,07,28,05,41,18.80
2014,07,28,05,42,18.80
2014,07,28,05,43,18.90
2014,07,28,05,44,18.90
2014,07,28,05,45,18.90
2014,07,28,05,46,18.90
2014,07,28,05,47,18.90
2014,07,28,05,48,18.90
2014,07,28,05,49,18.90
2014,07,28,05,50,18.90
2014,07,28,05,51,18.90
2014,07,28,05,52,18.90
2014,07,28,05,53,18.90
2014,07,28,05,54,18.90
2014,07,28,05,55,18.90
2014,07,28,05,56,18.90
2014,07,28,05,57,18.90
2014,07,28,05,58,18.90
2014,07,28,05,59,18.90
2014,07,28,06,00,18.90
2014,07,28,06,01,18.90
2014,07,28,06,02,18.90
2014,07,28,06,03,18.90
2014,07,28,06,04,18.90
2014,07,28,06,05,19.00
2014,07,28,06,06,19.00
2014,07,28,06,07,19.00
2014,07,28,06,08,19.00
2014,07,28,06,09,19.00
2014,07,28,06,10,19.00
2014,07,28,06,11,19.00
2014,07,28,06,12,19.10
2014,07,28,06,13,19.10
2014,07,28,06,14,19.10
2014,07,28,06,15,19.10
2014,07,28,06,16,19.10
2014,07,28,06,17,19.10
2014,07,28,06,18,19.10
2014,07,28,06,19,19.10
2014,07,28,06,20,19.20
2014,07,28,06,21,19.20
2014,07,28,06,22,19.20
2014,07,28,06,23,19.20
2014,07,28,06,24,19.20
2014,07,28,06,25,19.30
2014,07,28,06,26,19.30
2014,07,28,06,27,19.30
2014,07,28,06,28,19.30
2014,07,28,06,29,19.30
2014,07,28,06,30,19.30
2014,07,28,06,31,19.30
2014,07,28,06,32,19.30
2014,07,28,06,33,19.30
2014,07,28,06,34,19.30
2014,07,28,06,35,19.40
2014,07,28,06,36,19.40
2014,07,28,06,37,19.40
2014,07,28,06,38,19.40
2014,07,28,06,39,19.40
2014,07,28,06,40,19.40
2014,07,28,06,41,19.40
2014,07,28,06,42,19.40
2014,07,28,06,43,19.40
2014,07,28,06,44,19.40
2014,07,28,06,45,19.40
2014,07,28,06,46,19.50
2014,07,28,06,47,19.50
2014,07,28,06,48,19.50
2014,07,28,06,49,19.50
2014,07,28,06,50,19.50
2014,07,28,06,51,19.60
2014,07,28,06,52,19.60
2014,07,28,06,53,19.60
2014,07,28,06,54,19.60
2014,07,28,06,55,19.70
2014,07,28,06,56,19.70
2014,07,28,06,57,19.70
2014,07,28,06,58,19.70
2014,07,28,06,59,19.70
2014,07,28,07,00,19.80
2014,07,28,07,01,19.80
2014,07,28,07,02,19.80
2014,07,28,07,03,19.80
2014,07,28,07,04,19.90
2014,07,28,07,05,19.90
2014,07,28,07,06,19.90
2014,07,28,07,07,20.00
2014,07,28,07,08,20.00
2014,07,28,07,09,20.00
2014,07,28,07,10,20.10
2014,07,28,07,11,20.10
2014,07,28,07,12,20.10
2014,07,28,07,13,20.20
2014,07,28,07,14,20.20
2014,07,28,07,15,20.20
2014,07,28,07,16,20.20
2014,07,28,07,17,20.30
2014,07,28,07,18,20.30
2014,07,28,07,19,20.30
2014,07,28,07,20,20.30
2014,07,28,07,21,20.30
2014,07,28,07,22,20.30
2014,07,28,07,23,20.40
2014,07,28,07,24,20.40
2014,07,28,07,25,20.40
2014,07,28,07,26,20.40
2014,07,28,07,27,20.40
2014,07,28,07,28,20.50
2014,07,28,07,29,20.50
2014,07,28,07,30,20.50
2014,07,28,07,31,20.50
2014,07,28,07,32,20.50
2014,07,28,07,33,20.50
2014,07,28,07,34,20.50
2014,07,28,07,35,20.60
2014,07,28,07,36,20.60
2014,07,28,07,37,20.60
2014,07,28,07,38,20.60
2014,07,28,07,39,20.50
2014,07,28,07,40,20.50
2014,07,28,07,41,20.50
2014,07,28,07,42,20.60
2014,07,28,07,43,20.60
2014,07,28,07,44,20.60
2014,07,28,07,45,20.60
2014,07,28,07,46,20.60
2014,07,28,07,47,20.60
2014,07,28,07,48,20.60
2014,07,28,07,49,20.60
2014,07,28,07,50,20.60
2014,07,28,07,51,20.60
2014,07,28,07,52,20.60
2014,07,28,07,53,20.70
2014,07,28,07,54,20.70
2014,07,28,07,55,20.70
2014,07,28,07,56,20.70
2014,07,28,07,57,20.70
2014,07,28,07,58,20.70
2014,07,28,07,59,20.60
2014,07,28,08,00,20.60
2014,07,28,08,01,20.60
2014,07,28,08,02,20.60
2014,07,28,08,03,20.60
2014,07,28,08,04,20.60
2014,07,28,08,05,20.60
2014,07,28,08,06,20.60
2014,07,28,08,07,20.60
2014,07,28,08,08,20.60
2014,07,28,08,09,20.70
2014,07,28,08,10,20.70
2014,07,28,08,11,20.70
2014,07,28,08,12,20.60
2014,07,28,08,13,20.70
2014,07,28,08,14,20.70
2014,07,28,08,15,20.70
2014,07,28,08,16,20.70
2014,07,28,08,17,20.70
2014,07,28,08,18,20.70
2014,07,28,08,19,20.70
2014,07,28,08,20,20.70
2014,07,28,08,21,20.60
2014,07,28,08,22,20.60
2014,07,28,08,23,20.50
2014,07,28,08,24,20.40
2014,07,28,08,25,20.40
2014,07,28,08,26,20.40
2014,07,28,08,27,20.30
2014,07,28,08,28,20.30
2014,07,28,08,29,20.30
2014,07,28,08,30,20.30
2014,07,28,08,31,20.30
2014,07,28,08,32,20.30
2014,07,28,08,33,20.30
2014,07,28,08,34,20.30
2014,07,28,08,35,20.30
2014,07,28,08,36,20.30
2014,07,28,08,37,20.30
2014,07,28,08,38,20.30
2014,07,28,08,39,20.30
2014,07,28,08,40,20.30
2014,07,28,08,41,20.30
2014,07,28,08,42,20.30
2014,07,28,08,43,20.30
2014,07,28,08,44,20.30
2014,07,28,08,45,20.30
2014,07,28,08,46,20.30
2014,07,28,08,47,20.30
2014,07,28,08,48,20.20
2014,07,28,08,49,20.20
2014,07,28,08,50,20.20
2014,07,28,08,51,20.20
2014,07,28,08,52,20.10
2014,07,28,08,53,20.20
2014,07,28,08,54,20.20
2014,07,28,08,55,20.20
2014,07,28,08,56,20.20
2014,07,28,08,57,20.20
2014,07,28,08,58,20.20
2014,07,28,08,59,20.20
2014,07,28,09,00,20.20
2014,07,28,09,01,20.20
2014,07,28,09,02,20.30
2014,07,28,09,03,20.20
2014,07,28,09,04,20.20
2014,07,28,09,05,20.20
2014,07,28,09,06,20.20
2014,07,28,09,07,20.20
2014,07,28,09,08,20.20
2014,07,28,09,09,20.20
2014,07,28,09,10,20.20
2014,07,28,09,11,20.20
2014,07,28,09,12,20.20
2014,07,28,09,13,20.30
2014,07,28,09,14,20.30
2014,07,28,09,15,20.30
2014,07,28,09,16,20.30
2014,07,28,09,17,20.30
2014,07,28,09,18,20.20
2014,07,28,09,19,20.20
2014,07,28,09,20,20.20
2014,07,28,09,21,20.20
2014,07,28,09,22,20.10
2014,07,28,09,23,20.10
2014,07,28,09,24,20.10
2014,07,28,09,25,20.20
2014,07,28,09,26,20.20
2014,07,28,09,27,20.10
2014,07,28,09,28,20.10
2014,07,28,09,29,20.20
2014,07,28,09,30,20.20
2014,07,28,09,31,20.10
2014,07,28,09,32,20.10
2014,07,28,09,33,20.10
2014,07,28,09,34,20.10
2014,07,28,09,35,20.00
2014,07,28,09,36,20.00
2014,07,28,09,37,20.00
2014,07,28,09,38,20.00
2014,07,28,09,39,20.10
2014,07,28,09,40,20.10
2014,07,28,09,41,20.10
2014,07,28,09,42,20.10
2014,07,28,09,43,20.10
2014,07,28,09,44,20.20
2014,07,28,09,45,20.20
2014,07,28,09,46,20.20
2014,07,28,09,47,20.20
2014,07,28,09,48,20.30
2014,07,28,09,49,20.30
2014,07,28,09,50,20.30
2014,07,28,09,51,20.30
2014,07,28,09,52,20.30
2014,07,28,09,53,20.30
2014,07,28,09,54,20.40
2014,07,28,09,55,20.40
2014,07,28,09,56,20.40
2014,07,28,09,57,20.40
2014,07,28,09,58,20.40
2014,07,28,09,59,20.40
2014,07,28,10,00,20.40
2014,07,28,10,01,20.40
2014,07,28,10,02,20.30
2014,07,28,10,03,20.30
2014,07,28,10,04,20.30
2014,07,28,10,05,20.30
2014,07,28,10,06,20.30
2014,07,28,10,07,20.40
2014,07,28,10,08,20.40
2014,07,28,10,09,20.40
2014,07,28,10,10,20.40
2014,07,28,10,11,20.40
2014,07,28,10,12,20.30
2014,07,28,10,13,20.30
2014,07,28,10,14,20.40
2014,07,28,10,15,20.40
2014,07,28,10,16,20.40
2014,07,28,10,17,20.40
2014,07,28,10,18,20.40
2014,07,28,10,19,20.40
2014,07,28,10,20,20.30
2014,07,28,10,21,20.30
2014,07,28,10,22,20.30
2014,07,28,10,23,20.40
2014,07,28,10,24,20.40
2014,07,28,10,25,20.40
2014,07,28,10,26,20.40
2014,07,28,10,27,20.40
2014,07,28,10,28,20.50
2014,07,28,10,29,20.50
2014,07,28,10,30,20.60
2014,07,28,10,31,20.60
2014,07,28,10,32,20.60
2014,07,28,10,33,20.60
2014,07,28,10,34,20.60
2014,07,28,10,35,20.70
2014,07,28,10,36,20.70
2014,07,28,10,37,20.80
2014,07,28,10,38,20.80
2014,07,28,10,39,20.80
2014,07,28,10,40,20.80
2014,07,28,10,41,20.80
2014,07,28,10,42,20.80
2014,07,28,10,43,20.80
2014,07,28,10,44,20.80
2014,07,28,10,45,20.80
2014,07,28,10,46,20.70
2014,07,28,10,47,20.70
2014,07,28,10,48,20.80
2014,07,28,10,49,20.80
2014,07,28,10,50,20.90
2014,07,28,10,51,20.90
2014,07,28,10,52,20.90
2014,07,28,10,53,20.90
2014,07,28,10,54,20.90
2014,07,28,10,55,20.80
2014,07,28,10,56,20.80
2014,07,28,10,57,20.70
2014,07,28,10,58,20.80
2014,07,28,10,59,20.80
2014,07,28,11,00,20.90
2014,07,28,11,01,20.90
2014,07,28,11,02,20.90
2014,07,28,11,03,21.00
2014,07,28,11,04,21.10
2014,07,28,11,05,21.10
2014,07,28,11,06,21.20
2014,07,28,11,07,21.30
2014,07,28,11,08,21.30
2014,07,28,11,09,21.30
2014,07,28,11,10,21.20
2014,07,28,11,11,21.20
2014,07,28,11,12,21.20
2014,07,28,11,13,21.20
2014,07,28,11,14,21.20
2014,07,28,11,15,21.20
2014,07,28,11,16,21.20
2014,07,28,11,17,21.10
2014,07,28,11,18,21.10
2014,07,28,11,19,21.10
2014,07,28,11,20,21.10
2014,07,28,11,21,21.00
2014,07,28,11,22,21.00
2014,07,28,11,23,21.00
2014,07,28,11,24,21.00
2014,07,28,11,25,21.00
2014,07,28,11,26,21.00
2014,07,28,11,27,21.00
2014,07,28,11,28,21.00
2014,07,28,11,29,20.90
2014,07,28,11,30,20.90
2014,07,28,11,31,20.90
2014,07,28,11,32,21.00
2014,07,28,11,33,21.10
2014,07,28,11,34,21.10
2014,07,28,11,35,21.10
2014,07,28,11,36,21.10
2014,07,28,11,37,21.10
2014,07,28,11,38,21.10
2014,07,28,11,39,21.00
2014,07,28,11,40,21.00
2014,07,28,11,41,21.00
2014,07,28,11,42,21.10
2014,07,28,11,43,21.10
2014,07,28,11,44,21.10
2014,07,28,11,45,21.20
2014,07,28,11,46,21.10
2014,07,28,11,47,21.10
2014,07,28,11,48,21.00
2014,07,28,11,49,21.10
2014,07,28,11,50,21.10
2014,07,28,11,51,21.10
2014,07,28,11,52,21.10
2014,07,28,11,53,21.10
2014,07,28,11,54,21.10
2014,07,28,11,55,21.10
2014,07,28,11,56,21.10
2014,07,28,11,57,21.20
2014,07,28,11,58,21.20
2014,07,28,11,59,21.20
2014,07,28,12,00,21.20
2014,07,28,12,01,21.30
2014,07,28,12,02,21.30
2014,07,28,12,03,21.30
2014,07,28,12,04,21.30
2014,07,28,12,05,21.20
2014,07,28,12,06,21.30
2014,07,28,12,07,21.30
2014,07,28,12,08,21.30
2014,07,28,12,09,21.30
2014,07,28,12,10,21.40
2014,07,28,12,11,21.40
2014,07,28,12,12,21.40
2014,07,28,12,13,21.50
2014,07,28,12,14,21.60
2014,07,28,12,15,21.70
2014,07,28,12,16,21.80
2014,07,28,12,17,21.80
2014,07,28,12,18,21.80
2014,07,28,12,19,21.80
2014,07,28,12,20,21.70
2014,07,28,12,21,21.70
2014,07,28,12,22,21.80
2014,07,28,12,23,21.90
2014,07,28,12,24,22.00
2014,07,28,12,25,22.00
2014,07,28,12,26,22.00
2014,07,28,12,27,22.00
2014,07,28,12,28,22.00
2014,07,28,12,29,21.90
2014,07,28,12,30,21.90
2014,07,28,12,31,21.90
2014,07,28,12,32,21.90
2014,07,28,12,33,21.90
2014,07,28,12,34,21.90
2014,07,28,12,35,21.90
2014,07,28,12,36,21.90
2014,07,28,12,37,21.80
2014,07,28,12,38,21.80
2014,07,28,12,39,21.70
2014,07,28,12,40,21.70
2014,07,28,12,41,21.70
2014,07,28,12,42,21.80
2014,07,28,12,43,21.90
2014,07,28,12,44,22.00
2014,07,28,12,45,22.10
2014,07,28,12,46,22.10
2014,07,28,12,47,22.10
2014,07,28,12,48,22.00
2014,07,28,12,49,22.00
2014,07,28,12,50,21.90
2014,07,28,12,51,21.90
2014,07,28,12,52,21.90
2014,07,28,12,53,21.90
2014,07,28,12,54,21.90
2014,07,28,12,55,21.90
2014,07,28,12,56,21.90
2014,07,28,12,57,22.00
2014,07,28,12,58,22.10
2014,07,28,12,59,22.10
2014,07,28,13,00,22.20
2014,07,28,13,01,22.20
2014,07,28,13,02,22.20
2014,07,28,13,03,22.30
2014,07,28,13,04,22.30
2014,07,28,13,05,22.40
2014,07,28,13,06,22.40
2014,07,28,13,07,22.50
2014,07,28,13,08,22.50
2014,07,28,13,09,22.50
2014,07,28,13,10,22.60
2014,07,28,13,11,22.70
2014,07,28,13,12,22.70
2014,07,28,13,13,22.70
2014,07,28,13,14,22.70
2014,07,28,13,15,22.80
2014,07,28,13,16,22.80
2014,07,28,13,17,22.80
2014,07,28,13,18,22.80
2014,07,28,13,19,22.80
2014,07,28,13,20,22.80
2014,07,28,13,21,22.90
2014,07,28,13,22,22.90
2014,07,28,13,23,23.00
2014,07,28,13,24,23.10
2014,07,28,13,25,23.10
2014,07,28,13,26,23.10
2014,07,28,13,27,23.10
2014,07,28,13,28,23.10
2014,07,28,13,29,23.10
2014,07,28,13,30,23.10
2014,07,28,13,31,23.10
2014,07,28,13,32,23.10
2014,07,28,13,33,23.10
2014,07,28,13,34,23.10
2014,07,28,13,35,23.10
2014,07,28,13,36,23.10
2014,07,28,13,37,23.00
2014,07,28,13,38,23.00
2014,07,28,13,39,23.10
2014,07,28,13,40,23.10
2014,07,28,13,41,23.30
2014,07,28,13,42,23.30
2014,07,28,13,43,23.40
2014,07,28,13,44,23.40
2014,07,28,13,45,23.50
2014,07,28,13,46,23.60
2014,07,28,13,47,23.60
2014,07,28,13,48,23.60
2014,07,28,13,49,23.60
2014,07,28,13,50,23.60
2014,07,28,13,51,23.60
2014,07,28,13,52,23.60
2014,07,28,13,53,23.70
2014,07,28,13,54,23.70
2014,07,28,13,55,23.70
2014,07,28,13,56,23.60
2014,07,28,13,57,23.60
2014,07,28,13,58,23.50
2014,07,28,13,59,23.50
2014,07,28,14,00,23.50
2014,07,28,14,01,23.50
2014,07,28,14,02,23.50
2014,07,28,14,03,23.50
2014,07,28,14,04,23.50
2014,07,28,14,05,23.60
2014,07,28,14,06,23.60
2014,07,28,14,07,23.60
2014,07,28,14,08,23.70
2014,07,28,14,09,23.70
2014,07,28,14,10,23.80
2014,07,28,14,11,23.80
2014,07,28,14,12,23.80
2014,07,28,14,13,23.80
2014,07,28,14,14,23.80
2014,07,28,14,15,23.80
2014,07,28,14,16,23.80
2014,07,28,14,17,23.80
2014,07,28,14,18,23.80
2014,07,28,14,19,23.80
2014,07,28,14,20,23.90
2014,07,28,14,21,23.90
2014,07,28,14,22,24.10
2014,07,28,14,23,24.20
2014,07,28,14,24,24.30
2014,07,28,14,25,24.30
2014,07,28,14,26,24.40
2014,07,28,14,27,24.40
2014,07,28,14,28,24.40
2014,07,28,14,29,24.30
2014,07,28,14,30,24.40
2014,07,28,14,31,24.40
2014,07,28,14,32,24.50
2014,07,28,14,33,24.60
2014,07,28,14,34,24.70
2014,07,28,14,35,24.70
2014,07,28,14,36,24.60
2014,07,28,14,37,24.60
2014,07,28,14,38,24.60
2014,07,28,14,39,24.60
2014,07,28,14,40,24.60
2014,07,28,14,41,24.60
2014,07,28,14,42,24.60
2014,07,28,14,43,24.50
2014,07,28,14,44,24.40
2014,07,28,14,45,24.40
2014,07,28,14,46,24.40
2014,07,28,14,47,24.40
2014,07,28,14,48,24.40
2014,07,28,14,49,24.50
2014,07,28,14,50,24.50
2014,07,28,14,51,24.60
2014,07,28,14,52,24.70
2014,07,28,14,53,24.70
2014,07,28,14,54,24.70
2014,07,28,14,55,24.70
2014,07,28,14,56,24.70
2014,07,28,14,57,24.70
2014,07,28,14,58,24.70
2014,07,28,14,59,24.70
2014,07,28,15,00,24.70
2014,07,28,15,01,24.70
2014,07,28,15,02,24.70
2014,07,28,15,03,24.70
2014,07,28,15,04,24.80
2014,07,28,15,05,24.80
2014,07,28,15,06,24.80
2014,07,28,15,07,24.90
2014,07,28,15,08,25.00
2014,07,28,15,09,25.00
2014,07,28,15,10,25.10
2014,07,28,15,11,25.10
2014,07,28,15,12,25.20
2014,07,28,15,13,25.20
2014,07,28,15,14,25.30
2014,07,28,15,15,25.30
2014,07,28,15,16,25.30
2014,07,28,15,17,25.40
2014,07,28,15,18,25.40
2014,07,28,15,19,25.40
2014,07,28,15,20,25.40
2014,07,28,15,21,25.40
2014,07,28,15,22,25.30
2014,07,28,15,23,25.40
2014,07,28,15,24,25.40
2014,07,28,15,25,25.40
2014,07,28,15,26,25.50
2014,07,28,15,27,25.60
2014,07,28,15,28,25.60
2014,07,28,15,29,25.70
2014,07,28,15,30,25.80
2014,07,28,15,31,25.90
2014,07,28,15,32,26.00
2014,07,28,15,33,26.00
2014,07,28,15,34,26.00
2014,07,28,15,35,26.00
2014,07,28,15,36,26.00
2014,07,28,15,37,26.10
2014,07,28,15,38,26.10
2014,07,28,15,39,26.10
2014,07,28,15,40,26.10
2014,07,28,15,41,26.10
2014,07,28,15,42,26.10
2014,07,28,15,43,26.20
2014,07,28,15,44,26.20
2014,07,28,15,45,26.20
2014,07,28,15,46,26.20
2014,07,28,15,47,26.20
2014,07,28,15,48,26.20
2014,07,28,15,49,26.20
2014,07,28,15,50,26.20
2014,07,28,15,51,26.20
2014,07,28,15,52,26.30
2014,07,28,15,53,26.30
2014,07,28,15,54,26.40
2014,07,28,15,55,26.50
2014,07,28,15,56,26.60
2014,07,28,15,57,26.60
2014,07,28,15,58,26.70
2014,07,28,15,59,26.70
2014,07,28,16,00,26.70
2014,07,28,16,01,26.70
2014,07,28,16,02,26.70
2014,07,28,16,03,26.70
2014,07,28,16,04,26.80
2014,07,28,16,05,26.80
2014,07,28,16,06,26.90
2014,07,28,16,07,26.90
2014,07,28,16,08,26.90
2014,07,28,16,09,26.90
2014,07,28,16,10,27.00
2014,07,28,16,11,27.10
2014,07,28,16,12,27.20
2014,07,28,16,13,27.30
2014,07,28,16,14,27.30
2014,07,28,16,15,27.40
2014,07,28,16,16,27.50
2014,07,28,16,17,27.50
2014,07,28,16,18,27.60
2014,07,28,16,19,27.60
2014,07,28,16,20,27.60
2014,07,28,16,21,27.70
2014,07,28,16,22,27.80
2014,07,28,16,23,27.90
2014,07,28,16,24,27.90
2014,07,28,16,25,28.00
2014,07,28,16,26,27.90
2014,07,28,16,27,27.80
2014,07,28,16,28,27.80
2014,07,28,16,29,27.60
2014,07,28,16,30,27.50
2014,07,28,16,31,27.40
2014,07,28,16,32,27.40
2014,07,28,16,33,27.30
2014,07,28,16,34,27.30
2014,07,28,16,35,27.30
2014,07,28,16,36,27.30
2014,07,28,16,37,27.30
2014,07,28,16,38,27.30
2014,07,28,16,39,27.30
2014,07,28,16,40,27.40
2014,07,28,16,41,27.40
2014,07,28,16,42,27.40
2014,07,28,16,43,27.40
2014,07,28,16,44,27.40
2014,07,28,16,45,27.50
2014,07,28,16,46,27.50
2014,07,28,16,47,27.60
2014,07,28,16,48,27.60
2014,07,28,16,49,27.70
2014,07,28,16,50,27.70
2014,07,28,16,51,27.70
2014,07,28,16,52,27.70
2014,07,28,16,53,27.60
2014,07,28,16,54,27.50
2014,07,28,16,55,27.40
2014,07,28,16,56,27.30
2014,07,28,16,57,27.30
2014,07,28,16,58,27.30
2014,07,28,16,59,27.30
2014,07,28,17,00,27.30
2014,07,28,17,01,27.30
2014,07,28,17,02,27.30
2014,07,28,17,03,27.30
2014,07,28,17,04,27.40
2014,07,28,17,05,27.40
2014,07,28,17,06,27.40
2014,07,28,17,07,27.40
2014,07,28,17,08,27.40
2014,07,28,17,09,27.40
2014,07,28,17,10,27.40
2014,07,28,17,11,27.40
2014,07,28,17,12,27.50
2014,07,28,17,13,27.50
2014,07,28,17,14,27.60
2014,07,28,17,15,27.70
2014,07,28,17,16,27.70
2014,07,28,17,17,27.80
2014,07,28,17,18,27.90
2014,07,28,17,19,27.90